This is the latest recevied weather packets stored in our database for station/object KC5DAQ-22. If no packets are shown the sender has not sent any weather packets the latest 1 day(s).
| Time | Temp. | Humidity | Pressure | Rain* | Wind** | Luminosity | Snow |
|---|---|---|---|---|---|---|---|
| 1777968783 | 22.22° C | 88% | 1007.4 hPa | 0 mm | 1.34 m/s, 41° | 0 W/m² | - |
| 1777968721 | 22.22° C | 88% | 1007.4 hPa | 0 mm | 1.79 m/s, 51° | 0 W/m² | - |
| 1777968659 | 22.22° C | 88% | 1007.4 hPa | 0 mm | 1.34 m/s, 37° | 0 W/m² | - |
| 1777968598 | 22.22° C | 88% | 1007.5 hPa | 0 mm | 1.79 m/s, 39° | 0 W/m² | - |
| 1777968537 | 22.22° C | 88% | 1007.6 hPa | 0 mm | 1.34 m/s, 30° | 0 W/m² | - |
| 1777968476 | 22.22° C | 88% | 1007.5 hPa | 0 mm | 1.79 m/s, 45° | 0 W/m² | - |
| 1777968415 | 22.22° C | 88% | 1007.5 hPa | 0 mm | 2.24 m/s, 48° | 0 W/m² | - |
| 1777968356 | 22.22° C | 88% | 1007.5 hPa | 0 mm | 2.68 m/s, 39° | 0 W/m² | - |
| 1777968297 | 22.22° C | 88% | 1007.6 hPa | 0 mm | 2.68 m/s, 44° | 0 W/m² | - |
| 1777968236 | 22.22° C | 88% | 1007.5 hPa | 0 mm | 2.68 m/s, 47° | 0 W/m² | - |
| 1777968176 | 22.22° C | 88% | 1007.5 hPa | 0 mm | 2.24 m/s, 49° | 0 W/m² | - |
| 1777968117 | 22.22° C | 88% | 1007.5 hPa | 0 mm | 1.79 m/s, 35° | 0 W/m² | - |
| 1777968056 | 22.22° C | 88% | 1007.5 hPa | 0 mm | 2.68 m/s, 38° | 0 W/m² | - |
| 1777967995 | 22.22° C | 88% | 1007.4 hPa | 0 mm | 2.68 m/s, 35° | 0 W/m² | - |
| 1777967935 | 22.22° C | 88% | 1007.5 hPa | 0 mm | 1.79 m/s, 49° | 0 W/m² | - |
| 1777967876 | 22.22° C | 88% | 1007.5 hPa | 0 mm | 1.79 m/s, 44° | 0 W/m² | - |
| 1777967815 | 22.22° C | 88% | 1007.4 hPa | 0 mm | 2.24 m/s, 42° | 0 W/m² | - |
| 1777967756 | 22.22° C | 88% | 1007.5 hPa | 0 mm | 1.79 m/s, 42° | 0 W/m² | - |
| 1777967696 | 22.22° C | 88% | 1007.5 hPa | 0 mm | 1.79 m/s, 37° | 0 W/m² | - |
| 1777967635 | 22.22° C | 88% | 1007.5 hPa | 0 mm | 1.79 m/s, 32° | 0 W/m² | - |
| 1777967576 | 22.22° C | 88% | 1007.6 hPa | 0 mm | 2.24 m/s, 18° | 0 W/m² | - |
| 1777967517 | 22.22° C | 88% | 1007.5 hPa | 0 mm | 2.24 m/s, 45° | 0 W/m² | - |
| 1777967455 | 22.22° C | 88% | 1007.5 hPa | 0 mm | 1.79 m/s, 39° | 0 W/m² | - |
| 1777967396 | 22.22° C | 88% | 1007.6 hPa | 0 mm | 1.34 m/s, 54° | 0 W/m² | - |
| 1777967335 | 22.22° C | 88% | 1007.6 hPa | 0 mm | 1.34 m/s, 41° | 0 W/m² | - |
* Rain latest hour (hover to see other rain measurements)
** Current wind speed in m/s (hover to see current wind gust speed)